Regional Weather Roundup
Issued by NWS

Home | Current Version | Previous Version | Graphics & Text | Print | Product List | Glossary On
Versions: 1 2 3 4 5 6 7 8 9 10 11 12 13 14 15 16 17 18 19 20 21 22 23 24 25 26 27 28 29 30 31 32 33 34 35 36 37 38 39 40 41 42 43 44 45 46 47 48 49 50
000
ASUS43 KOAX 151602
RWRNE

WEATHER ROUNDUP FOR NEBRASKA
NATIONAL WEATHER SERVICE OMAHA NE
1100 AM CDT TUE APR 15 2014

NOTES: SATELLITE DATA IS BEING USED TO AUGMENT CLOUD COVER ABOVE
       12000 FEET.
       "FAIR" INDICATES FEW OR NO CLOUDS BELOW 12,000 FEET WITH NO
       SIGNIFICANT WEATHER AND/OR OBSTRUCTIONS TO VISIBILITY.

  * THESE STATIONS DO NOT REPORT WEATHER SUCH AS RAIN...SNOW OR FOG.

NEZ001>004-019>022-054>056-151700-
NEBRASKA PANHANDLE

CITY           SKY/WX    TMP DP  RH WIND       PRES   REMARKS
SCOTTSBLUFF    MOSUNNY   50  23  34 W17G28    29.87F
ALLIANCE       SUNNY     51  21  30 W18       29.84F
CHADRON        MOSUNNY   52  29  41 SW12      29.81F
KIMBALL        MOSUNNY   47  23  38 W16       29.89S
SIDNEY         SUNNY     53  23  31 W13       29.91F
$$

NEZ057>060-069>072-079>082-151700-
SOUTHWEST NEBRASKA

CITY           SKY/WX    TMP DP  RH WIND       PRES   REMARKS
NORTH PLATTE   SUNNY     48  25  40 SW13      29.94F
IMPERIAL       SUNNY     45  28  51 W10       29.95F
LEXINGTON      SUNNY     42  28  58 S12       30.01F
MCCOOK         SUNNY     47  25  42 SW16G26   30.01F
OGALLALA       SUNNY     46  28  49 W6        29.92F
$$

NEZ005>010-023>029-035>040-094-151700-
NORTH CENTRAL NEBRASKA

CITY           SKY/WX    TMP DP  RH WIND       PRES   REMARKS
VALENTINE      MOSUNNY   48  22  35 S17       29.86F
AINSWORTH      SUNNY     44  22  41 S18       29.90F
BROKEN BOW     SUNNY     43  22  43 S20G26    29.97F
O`NEILL        SUNNY     42  16  35 S21       30.00F
ORD            SUNNY     40  20  44 S17G26    30.02F WCI  31
THEDFORD       SUNNY     48  21  34 S17G23    29.89F
$$

NEZ041-046>049-061>064-073>077-083>087-151700-
SOUTH CENTRAL NEBRASKA

CITY           SKY/WX    TMP DP  RH WIND       PRES   REMARKS
GRAND ISLAND   SUNNY     42  25  50 S17       30.08F
AURORA         SUNNY     42  27  55 S14       30.10F
HASTINGS       SUNNY     43  23  45 S16G22    30.07F
HEBRON         SUNNY     44  24  43 S9        30.14F
HOLDREGE       SUNNY     41  26  55 S14       30.04F
KEARNEY *      SUNNY     41  25  52 S21       30.05F
YORK           SUNNY     39  27  60 S14       30.12F WCI  31
$$

NEZ011>018-030>034-042>045-151700-
NORTHEAST NEBRASKA

CITY           SKY/WX    TMP DP  RH WIND       PRES   REMARKS
NORFOLK        SUNNY     35  21  56 S12       30.11F WCI  27
ALBION         SUNNY     37  25  64 S15       30.08F WCI  27
BLAIR          SUNNY     37  20  50 SE5       30.16S WCI  33
COLUMBUS *     SUNNY     37  25  60 S10       30.13F WCI  30
FREMONT        SUNNY     37  22  53 SE8       30.17S WCI  31
TEKAMAH        SUNNY     36  23  59 SE8       30.18F WCI  30
$$

NEZ050>053-065>068-078-088>093-151700-
SOUTHEAST NEBRASKA

CITY           SKY/WX    TMP DP  RH WIND       PRES   REMARKS
LINCOLN        SUNNY     43  19  38 S6        30.17F
OMAHA EPPLEY   SUNNY     37  19  48 VRB5      30.19F WCI  33
BEATRICE       SUNNY     40  31  70 SE10      30.16F WCI  34
FALLS CITY     SUNNY     42  20  41 SW5       30.20S
NEBRASKA CITY  SUNNY     40  18  42 S3        30.19S
PLATTSMOUTH    SUNNY     38  21  49 SE6       30.18S WCI  34
$$

NEZ044-045-051>053-067-151700-
OMAHA AREA

CITY           SKY/WX    TMP DP  RH WIND       PRES   REMARKS
OMAHA EPPLEY   SUNNY     37  19  48 VRB5      30.19F WCI  33
BLAIR          SUNNY     37  20  50 SE5       30.16S WCI  33
FREMONT        SUNNY     37  22  53 SE8       30.17S WCI  31
MILLARD        SUNNY     38  19  46 SE6       30.18S WCI  33
OFFUTT AFB     SUNNY     39  20  47 S6        30.19F WCI  34
PLATTSMOUTH    SUNNY     38  21  49 SE6       30.18S WCI  34
WAHOO          FAIR      37  20  50 S9        30.16F WCI  30
$$



USA.gov is the U.S. government's official web portal to all federal, state and local government web resources and services.